Theta_e
322 322 322 322 322 322 322 322 322 322 322 322 322 323 322 323 322 325 319 324 326 335 334 324 322 320 319 317 322 325 318 315 315 316 319 326 324 328 330 326 330 331 332 335 339
321 321 321 322 321 321 321 321 322 322 322 322 322 322 322 322 326 320 327 340 338 336 322 318 316 317 319 317 320 317 316 317 322 323 322 324 326 325 325 325 327 329 335 338 339
320 321 321 321 321 321 321 321 321 322 322 322 321 321 322 325 322 320 340 341 337 330 317 318 319 320 317 319 318 319 317 323 324 327 326 327 325 328 325 322 326 329 332 335 335
320 320 321 321 321 321 320 320 321 321 321 321 320 321 322 328 311 325 346 343 340 323 317 319 320 324 323 320 324 319 324 326 326 327 326 325 327 326 326 327 331 335 336 335 331
319 320 320 320 320 320 320 320 320 320 320 319 320 322 324 319 318 331 341 333 321 317 317 319 323 325 322 325 327 324 325 327 328 327 327 327 325 326 326 330 334 336 335 331 328
318 319 319 319 319 319 319 318 318 318 318 319 320 321 318 314 325 328 323 321 319 318 319 322 324 329 325 324 325 327 326 326 326 326 324 322 325 327 326 331 332 334 334 332 326
318 318 318 319 319 319 318 318 317 318 318 319 321 323 316 315 325 325 322 319 319 319 319 321 327 323 330 326 330 327 323 324 324 322 321 326 320 323 330 331 331 332 334 332 326
318 318 318 318 318 318 319 318 317 319 319 320 321 323 316 319 326 323 326 323 322 321 321 326 331 329 328 332 327 322 323 317 322 323 322 323 314 325 330 330 329 330 332 332 328
318 317 317 318 318 318 317 316 318 320 320 320 323 319 313 318 319 322 325 319 320 320 321 321 329 328 328 321 318 319 312 313 317 324 323 321 316 324 329 328 328 330 332 332 330
318 317 316 317 317 317 315 315 318 319 321 322 319 316 316 315 319 319 324 319 317 318 319 322 325 321 321 317 307 309 311 313 314 321 322 319 318 323 327 326 327 330 332 332 332
318 317 316 316 317 315 318 319 318 317 317 312 312 312 314 318 320 319 320 319 320 320 315 319 316 314 315 317 315 313 312 312 318 321 320 319 320 321 324 324 326 329 330 332 333
317 317 316 316 316 315 318 314 312 313 310 314 313 313 315 317 314 316 321 317 317 313 316 314 312 315 315 314 313 313 312 314 318 320 320 320 318 322 324 326 327 328 329 331 332
315 315 315 315 314 316 316 313 317 315 312 311 314 314 315 318 314 314 319 319 316 313 313 311 313 315 316 316 315 315 313 314 314 318 320 318 316 319 324 327 328 329 330 331 332
314 314 314 313 315 317 315 317 319 317 309 308 312 314 316 317 313 320 321 320 316 312 313 313 315 315 316 314 316 312 316 316 315 314 307 317 305 317 321 322 324 326 328 328 330
314 314 314 312 318 315 315 319 319 318 299 310 312 319 316 313 315 316 322 319 314 313 315 311 312 313 313 314 317 315 319 318 316 314 312 313 309 315 319 317 320 324 326 326 329
313 314 312 317 320 317 318 320 320 307 298 307 311 310 311 313 314 317 318 321 320 315 315 313 316 316 316 319 320 321 318 316 316 313 306 311 309 310 315 317 319 322 324 325 329
313 313 312 318 315 320 321 318 306 304 310 306 306 309 309 309 311 314 314 314 312 308 309 313 314 318 321 317 320 319 316 306 305 305 303 313 309 310 318 320 321 321 324 327 330
311 309 314 318 321 323 320 311 303 306 308 312 310 307 306 310 311 312 313 311 314 314 311 307 306 315 319 316 314 316 314 306 299 300 302 312 304 310 320 323 325 325 326 328 329
308 323 322 325 323 322 314 303 307 308 309 308 308 305 306 309 309 311 312 312 314 316 310 308 307 316 316 316 318 315 311 315 309 310 305 306 310 318 321 321 324 324 326 328 329
318 319 323 322 321 320 310 301 308 310 309 309 305 306 305 308 308 309 310 314 313 316 318 314 307 315 314 317 316 316 317 309 310 300 298 304 305 307 313 317 322 324 325 329 331
320 313 322 323 320 313 305 306 306 308 309 308 308 307 307 307 309 309 310 313 315 314 317 317 314 313 316 313 312 312 311 312 312 309 301 300 304 315 315 319 320 323 326 328 330
319 308 323 322 310 311 308 305 301 306 309 308 310 312 311 309 309 308 308 312 316 318 312 318 316 308 310 317 317 316 314 314 307 304 309 306 306 319 322 323 325 323 325 328 329
314 315 324 320 307 307 309 306 307 306 306 308 308 313 315 312 308 310 310 318 320 318 318 320 314 306 309 314 317 314 315 316 315 315 307 304 306 321 323 324 325 324 325 327 329
313 307 316 317 315 311 308 308 306 310 310 314 313 315 313 313 315 312 311 317 320 321 319 322 320 312 304 308 313 311 313 314 315 309 307 308 310 315 319 320 323 325 325 325 327
313 312 317 308 309 310 310 308 306 305 310 313 314 313 312 311 312 313 314 317 320 316 321 325 315 315 313 312 312 311 310 311 311 312 308 310 311 315 319 319 320 325 327 325 325
311 314 320 316 313 310 305 310 307 308 308 312 312 314 315 314 315 312 315 316 315 322 321 322 315 315 311 313 313 310 311 313 313 313 313 314 314 321 323 322 323 326 326 326 326
322 324 320 310 317 313 313 311 310 310 311 313 314 315 314 316 323 323 325 323 323 321 321 321 317 313 306 312 310 305 310 310 312 316 316 311 318 322 320 321 324 326 327 327 327
Wind_Speed
15 14 14 15 14 13 14 12 13 12 12 13 12 11 11 11 12 6 9 5 10 13 9 10 10 7 8 3 3 4 5 5 7 0 9 11 12 14 15 17 18 13 16 14 10
14 15 14 14 15 14 15 12 12 13 12 11 11 11 10 9 7 8 6 9 14 13 10 11 9 9 5 2 3 7 5 11 9 6 8 7 11 13 15 13 15 14 15 11 9
13 14 16 14 15 15 14 13 13 13 12 11 10 11 10 9 8 9 5 10 9 7 3 5 5 6 3 2 2 3 9 9 10 9 7 13 9 10 13 11 8 12 10 10 10
13 14 16 16 16 15 15 13 13 14 13 11 11 11 10 6 9 7 3 7 6 6 7 5 7 5 3 6 4 10 7 10 10 7 6 9 9 15 10 15 6 10 9 9 9
13 14 15 16 16 16 15 13 14 14 13 12 12 10 6 8 9 8 5 5 7 6 6 5 7 4 8 10 14 13 10 12 9 9 12 11 12 13 15 11 10 9 8 10 10
13 15 14 16 16 17 15 14 13 14 12 11 11 12 6 8 4 7 5 6 6 7 3 5 4 10 10 6 6 11 15 14 12 10 6 12 16 10 11 10 8 9 9 9 10
14 14 14 14 16 16 15 15 13 13 10 8 9 6 5 8 3 6 6 3 2 2 3 4 3 6 8 15 15 17 16 13 10 5 11 12 11 13 11 8 9 10 9 8 9
14 14 14 16 17 16 14 15 13 10 4 4 6 5 3 3 2 5 4 6 3 1 4 4 8 10 5 19 11 8 12 11 10 7 4 9 10 11 8 9 10 9 9 8 7
14 15 15 16 19 18 13 14 5 1 3 4 6 6 8 5 4 0 4 4 5 3 4 4 3 10 15 11 11 10 4 1 8 8 4 5 8 14 10 6 8 9 9 8 8
14 15 16 16 19 20 17 7 4 3 5 5 2 6 5 6 3 2 5 5 3 8 8 7 6 9 8 9 9 6 4 3 4 9 8 5 2 14 11 8 8 9 9 9 9
14 15 16 16 18 17 12 6 4 6 1 6 4 5 4 1 3 8 7 8 6 8 8 7 9 3 7 7 9 7 3 1 3 4 8 5 3 13 11 10 9 9 9 9 9
13 14 17 16 18 14 8 5 6 6 7 2 4 6 4 1 5 10 9 11 8 10 4 8 4 5 5 2 3 3 3 5 4 3 8 3 4 12 13 13 12 12 10 9 9
13 13 18 16 16 7 5 7 7 3 7 2 2 3 2 7 7 14 14 6 12 9 11 13 11 2 4 8 8 4 3 5 4 7 2 5 10 13 13 13 12 12 10 11 11
12 12 16 23 4 6 1 6 8 6 6 6 7 5 6 3 7 10 11 6 7 11 5 4 4 5 10 6 6 7 2 5 7 9 5 4 4 14 14 14 13 13 13 14 13
11 10 13 8 9 6 6 9 1 5 3 5 8 4 2 6 10 10 9 5 11 9 7 6 2 5 4 6 4 6 7 6 5 4 5 8 8 11 9 13 14 14 12 12 13
10 9 13 5 6 5 8 7 5 8 5 6 4 6 10 7 8 12 10 6 3 6 5 4 1 4 4 6 3 13 9 5 5 5 8 5 5 3 6 10 11 15 14 13 11
9 7 6 5 6 9 10 5 7 4 3 4 3 5 8 9 9 12 13 11 10 9 11 7 5 7 9 10 7 6 8 5 3 1 5 4 6 6 1 2 6 11 15 14 12
9 6 4 5 7 8 5 6 4 2 3 2 1 4 10 9 7 12 13 11 5 9 4 6 9 10 8 3 5 9 5 7 10 10 9 3 4 6 1 2 4 7 10 12 12
9 3 3 3 4 5 7 5 4 3 4 4 4 8 8 7 4 11 14 14 11 9 7 6 4 6 2 3 6 7 7 5 8 5 9 5 2 8 5 7 7 9 11 12 13
5 4 1 5 5 5 5 2 1 2 5 2 2 3 10 10 8 9 13 12 8 6 3 4 4 6 5 6 3 7 4 5 6 7 9 3 4 6 2 5 8 10 12 12 13
4 4 6 3 4 5 4 3 1 1 4 4 3 2 3 6 6 7 12 7 7 8 5 6 5 8 5 10 9 7 9 3 5 6 8 6 6 5 3 2 6 8 11 11 11
2 4 3 2 5 1 2 2 2 4 1 3 4 3 2 5 7 5 6 1 3 7 8 4 5 8 7 3 4 6 8 4 6 2 2 7 6 6 1 2 3 5 7 9 10
2 1 3 4 4 5 3 2 2 3 3 3 2 1 1 2 6 7 2 4 2 5 6 7 5 7 7 8 7 7 7 8 4 5 11 9 4 6 4 4 4 6 6 8 10
3 5 4 3 1 3 2 1 2 2 6 4 4 3 3 3 3 3 7 3 3 3 1 4 3 10 10 3 4 5 9 9 10 8 11 9 11 3 5 4 5 7 7 9 10
3 2 4 5 7 4 3 1 2 2 4 3 4 3 2 2 3 2 4 7 5 6 4 5 6 5 3 1 3 7 9 7 12 15 12 15 9 5 1 4 4 5 8 9 10
3 4 4 4 3 7 4 4 4 2 4 5 4 4 3 2 4 3 1 3 2 7 5 4 4 4 6 3 5 9 8 8 11 13 12 13 13 1 4 3 4 5 7 10 11
2 1 5 5 6 6 5 4 1 2 5 8 7 8 5 4 6 5 3 3 2 2 5 5 5 5 8 1 7 10 5 8 8 9 8 10 9 2 5 3 1 2 5 8 10
Wind_Direction
327 323 319 317 316 317 313 317 315 315 313 310 316 312 314 319 299 210 183 74 121 174 165 161 196 195 208 202 255 267 252 89 71 57 110 140 109 73 71 77 66 64 78 95 112
325 321 315 311 311 317 309 314 313 310 306 306 308 306 309 319 240 198 94 123 148 168 171 189 197 196 193 181 177 271 313 54 29 67 122 123 123 119 106 93 95 94 91 84 80
322 320 313 314 310 313 306 312 311 307 303 306 307 302 302 292 216 100 133 127 155 209 242 239 219 221 137 209 62 42 57 98 84 83 121 105 110 150 110 93 58 100 106 103 96
316 316 309 312 310 312 305 309 306 305 303 306 307 302 307 226 143 88 147 139 145 231 207 199 192 187 82 80 73 105 74 105 102 111 117 89 124 84 99 93 114 101 104 112 108
320 314 309 312 314 311 303 306 300 297 298 303 304 308 265 212 93 116 148 152 169 192 228 210 209 109 85 99 87 95 95 90 109 102 93 109 118 107 108 115 105 115 137 123 108
317 311 316 310 311 305 304 299 293 292 293 297 298 303 255 167 82 133 166 177 213 213 185 224 201 98 88 54 19 117 109 111 120 119 120 121 123 121 118 133 139 143 132 121 110
312 313 314 311 308 305 306 301 301 295 289 284 287 285 256 85 117 135 184 191 181 244 130 82 132 311 112 100 112 125 120 125 128 125 121 115 122 115 129 153 137 142 132 129 118
313 319 314 320 311 306 310 312 313 298 266 252 269 254 97 108 137 257 189 191 172 270 66 83 118 92 91 120 150 158 169 182 148 172 149 262 130 149 152 157 144 151 144 148 116
316 321 323 317 312 314 323 311 312 33 115 188 229 267 128 137 200 161 208 181 140 181 104 162 171 109 148 159 171 185 338 120 163 194 172 264 131 155 169 167 161 171 162 158 160
322 321 317 319 315 318 318 265 174 196 210 228 246 222 173 139 107 151 158 173 166 158 159 198 167 169 209 236 341 4 223 204 226 168 221 205 161 156 170 200 188 195 178 191 196
320 320 316 320 316 321 321 213 257 176 73 348 344 301 102 17 196 192 175 178 177 214 208 212 221 315 341 289 316 308 301 207 75 112 239 251 201 170 181 208 222 214 200 206 205
322 322 315 321 317 310 282 39 41 344 300 248 279 267 259 256 181 165 176 198 199 206 183 199 241 9 345 334 178 172 161 110 122 145 255 187 200 162 189 211 221 214 219 208 205
319 321 318 322 317 294 359 46 333 250 259 131 233 266 115 199 195 173 192 206 205 202 204 266 65 154 158 135 131 119 326 164 3 158 187 208 207 196 209 215 220 226 221 223 210
316 325 324 320 297 347 114 343 332 196 245 127 166 134 179 234 177 157 208 221 203 221 192 251 82 140 179 151 278 153 218 176 164 220 13 225 7 185 195 211 215 221 219 219 210
315 326 320 340 314 301 9 331 61 223 179 136 132 85 174 236 132 169 189 209 212 184 224 110 279 181 185 54 1 87 155 176 213 266 280 162 264 105 187 215 209 205 202 206 201
314 322 317 221 250 328 319 321 232 230 103 141 158 182 185 185 176 141 185 222 327 174 218 70 109 33 75 60 65 137 143 158 227 276 231 75 282 252 169 239 207 191 192 191 197
309 308 283 307 322 328 309 248 237 298 161 116 153 194 202 169 166 186 187 190 190 199 204 173 92 101 147 100 141 233 215 259 267 218 5 94 249 319 293 195 243 191 193 189 189
308 292 181 282 314 309 259 241 251 76 59 76 227 194 196 169 174 189 193 189 216 230 215 232 155 163 177 285 235 216 295 324 314 352 354 137 282 50 93 167 228 241 193 188 191
306 208 243 9 334 274 260 243 34 38 11 347 173 198 173 172 247 192 203 207 189 207 241 201 147 147 219 210 218 156 235 14 284 195 260 51 186 198 207 233 202 204 204 187 194
307 283 92 332 321 258 255 16 53 349 336 275 260 275 184 176 201 211 188 204 201 220 312 171 202 207 120 164 156 280 99 226 214 314 319 51 278 7 323 179 188 191 195 194 194
252 247 72 324 268 237 266 66 313 350 311 307 5 185 247 176 231 199 184 146 212 173 208 182 239 146 176 211 262 167 209 254 300 286 320 313 15 85 329 328 193 201 193 192 194
279 224 73 278 221 272 241 15 358 309 244 276 289 291 324 198 210 202 201 266 169 181 195 181 221 239 237 82 312 292 299 242 286 309 267 292 287 125 196 194 255 226 186 187 190
242 25 122 276 241 195 137 213 273 295 314 305 285 326 353 199 213 234 190 85 162 198 187 174 210 225 206 189 193 232 214 250 259 279 276 294 341 149 160 223 207 230 198 193 192
230 186 143 211 12 291 222 138 227 216 274 271 294 267 241 209 191 217 223 131 120 184 1 175 195 263 261 320 22 198 230 231 228 270 293 266 294 222 183 203 189 204 205 206 192
225 108 5 177 198 216 259 286 268 233 225 255 209 259 318 238 174 208 214 161 157 157 160 216 243 237 281 308 245 289 290 231 238 258 280 300 307 351 251 170 193 190 211 212 197
202 201 183 122 158 200 163 196 255 244 251 169 249 346 297 285 8 34 258 234 193 177 180 191 212 215 216 214 265 276 282 276 272 272 278 281 282 251 110 158 182 212 229 229 216
136 143 278 131 175 218 181 220 250 295 224 262 294 310 252 25 336 360 15 71 22 276 189 205 164 224 271 233 276 260 314 316 295 275 294 290 34 115 199 195 290 319 262 257 239